TimeEDT,TemperatureF,Dew PointF,Humidity,Sea Level PressureIn,VisibilityMPH,Wind Direction,Wind SpeedMPH,Gust SpeedMPH,PrecipitationIn,Events,Conditions,WindDirDegrees,DateUTC
12:53 AM,84.0,75.0,74,30.06,10.0,East,11.5,-,N/A,,Partly Cloudy,90,2013-08-21 04:53:00
1:53 AM,82.9,75.9,79,30.04,10.0,East,8.1,-,N/A,,Partly Cloudy,80,2013-08-21 05:53:00
2:53 AM,82.9,75.9,79,30.04,10.0,ENE,8.1,-,N/A,,Partly Cloudy,60,2013-08-21 06:53:00
3:53 AM,82.9,73.9,74,30.02,10.0,East,11.5,-,0.00,,Clear,90,2013-08-21 07:53:00
4:53 AM,84.0,75.0,74,30.03,10.0,East,13.8,20.7,N/A,,Partly Cloudy,90,2013-08-21 08:53:00
5:53 AM,82.0,75.9,82,30.04,10.0,ENE,6.9,-,N/A,,Clear,70,2013-08-21 09:53:00
6:42 AM,82.4,73.4,74,30.05,10.0,East,9.2,-,N/A,Thunderstorm,Thunderstorm,90,2013-08-21 10:42:00
6:53 AM,82.9,73.9,74,30.04,10.0,East,12.7,-,N/A,Thunderstorm,Thunderstorm,90,2013-08-21 10:53:00
7:02 AM,82.4,73.4,74,30.03,10.0,East,9.2,-,N/A,,Mostly Cloudy,80,2013-08-21 11:02:00
7:53 AM,84.0,73.9,72,30.05,10.0,East,11.5,-,N/A,,Mostly Cloudy,90,2013-08-21 11:53:00
8:06 AM,84.2,75.2,74,30.05,10.0,East,13.8,-,N/A,Thunderstorm,Thunderstorm,80,2013-08-21 12:06:00
8:53 AM,82.9,75.0,77,30.07,10.0,East,15.0,24.2,N/A,,Mostly Cloudy,80,2013-08-21 12:53:00
9:53 AM,84.9,75.0,72,30.08,10.0,East,10.4,-,N/A,,Mostly Cloudy,100,2013-08-21 13:53:00
10:53 AM,86.0,75.0,70,30.09,10.0,East,15.0,-,N/A,,Scattered Clouds,90,2013-08-21 14:53:00
11:49 AM,87.8,75.2,66,30.07,10.0,East,17.3,-,N/A,,Scattered Clouds,90,2013-08-21 15:49:00
11:53 AM,88.0,75.9,67,30.08,10.0,East,17.3,-,N/A,,Scattered Clouds,90,2013-08-21 15:53:00
12:53 PM,89.1,75.9,65,30.08,10.0,East,20.7,29.9,N/A,,Scattered Clouds,100,2013-08-21 16:53:00
1:53 PM,90.0,75.0,61,30.06,10.0,East,17.3,-,N/A,,Scattered Clouds,100,2013-08-21 17:53:00
2:53 PM,90.0,75.9,63,30.04,10.0,East,17.3,25.3,N/A,,Scattered Clouds,100,2013-08-21 18:53:00
3:53 PM,90.0,77.0,65,30.03,10.0,East,18.4,-,N/A,,Mostly Cloudy,90,2013-08-21 19:53:00
4:35 PM,86.0,75.2,70,30.01,10.0,East,17.3,-,0.00,,Mostly Cloudy,100,2013-08-21 20:35:00
4:53 PM,87.1,75.9,69,30.01,10.0,East,16.1,-,0.00,,Mostly Cloudy,100,2013-08-21 20:53:00
5:53 PM,82.9,77.0,82,30.02,10.0,East,10.4,-,0.05,,Partly Cloudy,90,2013-08-21 21:53:00
6:53 PM,84.0,75.9,76,30.01,10.0,East,15.0,-,0.00,Rain,Light Rain,100,2013-08-21 22:53:00
7:53 PM,84.0,75.9,76,30.02,10.0,East,10.4,-,0.00,,Scattered Clouds,90,2013-08-21 23:53:00
8:53 PM,82.0,75.0,79,30.05,10.0,East,11.5,-,0.00,Rain,Light Rain,90,2013-08-22 00:53:00
9:53 PM,84.0,75.9,76,30.06,10.0,East,9.2,-,0.00,,Scattered Clouds,90,2013-08-22 01:53:00
10:53 PM,84.0,77.0,79,30.06,10.0,East,12.7,-,N/A,,Scattered Clouds,100,2013-08-22 02:53:00
11:53 PM,82.9,75.9,79,30.08,10.0,ESE,10.4,-,0.00,,Scattered Clouds,110,2013-08-22 03:53:00